EW9119 Weather Reports


time (UTC)temp
F
wind
direction
speed
knots
gust
knots
rain 1hr
in
rain 24hr
in
rain mn
in
humidity
%
barometer
mb
20260509220033 71 147 0.0 0.9 0.00 0.00 0.00 62 1007.5
20260509214529 72 43 0.0 0.0 0.00 0.00 0.00 62 1007.4
20260509213025 72 127 0.0 0.0 0.00 0.00 0.00 62 1007.5
20260509211520 72 26 0.0 1.7 0.00 0.00 0.00 62 1007.3
20260509210021 72 62 0.0 0.0 0.00 0.00 0.00 62 1007.0
20260509204512 73 121 0.0 0.0 0.00 0.00 0.00 62 1007.1
20260509203007 73 296 0.0 0.0 0.00 0.00 0.00 62 1007.1
20260509201503 72 92 0.0 0.0 0.00 0.00 0.00 62 1007.2
20260509200104 72 319 0.0 0.0 0.00 0.00 0.00 62 1007.3
20260509194558 72 106 0.0 0.0 0.00 0.00 0.00 62 1007.5
20260509193050 73 355 0.0 0.0 0.00 0.00 0.00 62 1007.9
20260509191546 73 103 0.0 0.0 0.00 0.00 0.00 61 1007.9
20260509190050 73 290 0.0 0.0 0.00 0.00 0.00 61 1007.9
20260509184536 72 334 0.0 0.0 0.00 0.00 0.00 60 1007.8
20260509183032 73 16 0.0 0.0 0.00 0.00 0.00 60 1008.1
20260509181528 72 111 0.0 0.0 0.00 0.00 0.00 61 1008.3
20260509180023 72 301 0.0 0.0 0.00 0.00 0.00 61 1008.7
20260509174519 71 321 0.0 0.0 0.00 0.00 0.00 62 1008.7
20260509173015 72 17 0.0 0.0 0.00 0.00 0.00 62 1008.9
20260509171522 72 289 0.0 0.0 0.00 0.00 0.00 62 1008.8
20260509170023 71 229 0.0 0.0 0.00 0.00 0.00 62 1009.3
20260509164503 72 150 0.0 0.0 0.00 0.00 0.00 61 1009.5
20260509163058 72 80 0.0 0.0 0.00 0.00 0.00 61 1009.6
20260509161559 71 84 0.0 0.0 0.00 0.00 0.00 59 1009.9
20260509160052 70 70 0.0 0.9 0.00 0.00 0.00 58 1010.0
20260509154546 70 104 0.0 0.0 0.00 0.00 0.00 55 1010.0
20260509153042 69 107 0.0 0.0 0.00 0.00 0.00 58 1009.8
20260509151538 69 317 0.0 0.0 0.00 0.00 0.00 57 1010.0
20260509150036 68 238 0.0 0.0 0.00 0.00 0.00 51 1010.2
20260509144532 67 113 0.0 0.0 0.00 0.00 0.00 51 1010.4
20260509143024 67 96 0.0 0.0 0.00 0.00 0.00 52 1010.3
20260509141522 66 92 0.0 0.0 0.00 0.00 0.00 47 1010.2
20260509140015 65 109 0.0 0.9 0.00 0.00 0.00 42 1010.5
20260509134512 64 65 0.0 0.0 0.00 0.00 0.00 22 1010.8
20260509133006 62 57 0.0 0.0 0.00 0.00 0.00 1 1011.2
20260509131502 59 132 0.0 0.0 0.00 0.00 0.00 1 1011.4
20260509130058 56 273 0.0 0.0 0.00 0.00 0.00 1 1011.8
20260509124554 54 277 0.0 0.0 0.00 0.00 0.00 1 1012.1
20260509123051 52 19 0.0 0.0 0.00 0.00 0.00 1 1011.8
20260509121549 51 5 0.0 0.0 0.00 0.00 0.00 1 1011.5
20260509120043 50 295 0.0 0.9 0.00 0.00 0.00 1 1011.3
20260509114543 49 313 0.0 0.0 0.00 0.00 0.00 1 1011.5
20260509113034 48 121 0.0 0.0 0.00 0.00 0.00 1 1011.4
20260509111529 47 173 0.0 0.0 0.00 0.00 0.00 1 1011.2
20260509110024 47 173 0.0 0.0 0.00 0.00 0.00 5 1011.3
20260509104520 48 179 0.0 0.0 0.00 0.00 0.00 12 1011.1
20260509103017 48 165 0.0 0.0 0.00 0.00 0.00 22 1010.8
20260509101526 48 165 0.0 0.0 0.00 0.00 0.00 23 1010.3
20260509100020 49 165 0.0 0.0 0.00 0.00 0.00 26 1010.3
20260509094515 49 165 0.0 0.0 0.00 0.00 0.00 31 1010.5
20260509093009 50 165 0.0 0.0 0.00 0.00 0.00 42 1010.3
20260509091503 50 165 0.0 0.0 0.00 0.00 0.00 44 1010.5
20260509084600 51 165 0.0 0.0 0.00 0.00 0.00 50 1010.8
20260509083055 52 165 0.0 0.0 0.00 0.00 0.00 50 1011.0
20260509081553 52 165 0.0 0.0 0.00 0.00 0.00 49 1011.2
20260509080051 52 165 0.0 0.0 0.00 0.00 0.00 54 1011.1
20260509074559 53 165 0.0 0.0 0.00 0.00 0.00 56 1010.9
20260509073048 53 165 0.0 0.0 0.00 0.00 0.00 57 1010.9
20260509071547 53 165 0.0 0.0 0.00 0.00 0.00 58 1011.1
20260509070045 54 165 0.0 0.0 0.00 0.00 0.00 58 1011.2
20260509064557 54 165 0.0 0.0 0.00 0.00 0.00 58 1011.4
20260509063045 54 165 0.0 0.0 0.00 0.00 0.00 60 1011.6
20260509061543 54 166 0.0 0.0 0.00 0.00 0.00 61 1011.9
20260509060037 54 168 0.0 0.0 0.00 0.00 0.00 55 1012.0
20260509054536 54 168 0.0 0.0 0.00 0.00 0.00 62 1012.2
20260509053032 53 168 0.0 0.0 0.00 0.00 0.00 59 1012.5
20260509051534 53 180 0.0 0.0 0.00 0.00 0.00 58 1012.6
20260509050028 53 182 0.0 0.0 0.00 0.00 0.00 55 1012.7
20260509044526 53 87 0.0 0.0 0.00 0.00 0.00 56 1012.8
20260509043024 53 87 0.0 0.0 0.00 0.00 0.00 57 1012.8
20260509041523 53 87 0.0 0.0 0.00 0.00 0.00 58 1012.8
20260509040021 52 87 0.0 0.0 0.00 0.00 0.00 60 1012.8
20260509034537 52 87 0.0 0.0 0.00 0.00 0.00 61 1012.8
20260509033020 53 87 0.0 0.0 0.00 0.00 0.00 60 1012.8
20260509031517 53 87 0.0 0.0 0.00 0.00 0.00 59 1012.8
20260509030017 53 87 0.0 0.0 0.00 0.00 0.00 61 1012.8
20260509024509 53 87 0.0 0.0 0.00 0.00 0.00 63 1013.0
20260509023006 53 87 0.0 0.0 0.00 0.00 0.00 64 1013.1
20260509021502 54 87 0.0 0.0 0.00 0.00 0.00 65 1013.1
20260509020056 54 87 0.0 0.0 0.00 0.00 0.00 65 1013.3
20260509014553 55 87 0.0 0.0 0.00 0.00 0.00 64 1013.2
20260509013054 56 87 0.0 0.0 0.00 0.00 0.00 64 1013.1
20260509011544 57 87 0.0 0.0 0.00 0.00 0.00 64 1012.9
20260509010042 57 87 0.0 0.0 0.00 0.00 0.00 62 1012.8
20260509004538 58 87 0.0 0.0 0.00 0.00 0.00 60 1012.7
20260509003034 60 87 0.0 0.0 0.00 0.00 0.00 56 1012.7
20260509001532 61 87 0.0 0.0 0.00 0.00 0.00 54 1012.6
20260509000024 62 86 0.0 0.0 0.00 0.00 0.00 53 1012.4
20260508234525 63 87 0.0 0.0 0.00 0.00 0.00 55 1012.5
20260508233016 64 143 0.0 0.0 0.00 0.00 0.00 52 1012.7
20260508231512 64 250 0.0 0.0 0.00 0.00 0.00 57 1012.6
20260508230007 65 234 0.0 0.0 0.00 0.00 0.00 50 1012.4
20260508224508 65 349 0.0 0.0 0.00 0.00 0.00 52 1012.3
20260508223059 66 349 0.0 0.0 0.00 0.00 0.00 50 1012.4
20260508221555 67 232 0.0 0.0 0.00 0.00 0.00 48 1012.1